This demonstration page uses our WeatherBlox Daily Observations layout. Learn more.

Left ArrowRight Arrow

41.86663, -103.66717

Hourly Observations for August 13, 2021

Temp ( °F °C ) Dew Point ( °F °C ) Humidity (%) Winds ( mph kmh ) Pressure ( in mb ) Visibility ( mi km ) Precip ( " mm )
12:53 am 00:53 Clear 61 16.1 47 8.3 60 60 E 6 9 30.11 1020 10 16 N/A
1:53 am 01:53 Clear 60 15.6 47 8.3 62 62 E 7 11 30.11 1020 10 16 N/A
2:53 am 02:53 Clear 58 14.4 46 7.8 65 65 ENE 6 9 30.11 1020 10 16 N/A
3:53 am 03:53 Clear 57 13.9 46 7.8 67 67 ENE 6 9 30.11 1020 10 16 N/A
4:53 am 04:53 Clear 57 13.9 46 7.8 67 67 ENE 7 11 30.12 1020 10 16 N/A
5:53 am 05:53 Clear 57 13.9 46 7.8 67 67 E 8 13 30.15 1021 10 16 N/A
6:53 am 06:53 Sunny 60 15.6 46 7.8 60 60 N N/A 30.17 1022 10 16 N/A
7:53 am 07:53 Sunny 62 16.7 47 8.3 58 58 SSE 5 7 30.22 1023 10 16 N/A
8:53 am 08:53 Mostly Sunny 67 19.4 49 9.4 53 53 ESE 8 13 30.24 1024 10 16 N/A
9:53 am 09:53 Sunny 72 22.2 50 10 46 46 E 12 19 30.24 1024 10 16 N/A
10:53 am 10:53 Sunny 76 24.4 50 10 40 40 E 14 22 30.22 1023 10 16 N/A
11:53 am 11:53 Sunny 80 26.7 52 11.1 38 38 SE 18 30 30.19 1023 10 16 N/A
12:53 pm 12:53 Mostly Sunny 81 27.2 54 12.2 39 39 SSE 16 26 30.18 1022 10 16 N/A
1:53 pm 13:53 Sunny 82 27.8 55 12.8 40 40 SE 8 13 30.17 1022 10 16 N/A
2:53 pm 14:53 Sunny 84 28.9 55 12.8 37 37 ESE 12 19 30.15 1021 10 16 N/A
3:53 pm 15:53 Sunny 85 29.4 56 13.3 37 37 ESE 13 20 30.13 1020 10 16 N/A
4:53 pm 16:53 Sunny 84 28.9 58 14.4 41 41 ESE 13 20 30.12 1020 10 16 N/A
5:53 pm 17:53 Sunny 84 28.9 58 14.4 41 41 E 12 19 30.11 1020 10 16 N/A
6:53 pm 18:53 Sunny 83 28.3 55 12.8 38 38 SE 12 19 30.11 1020 10 16 N/A
7:53 pm 19:53 Sunny 75 23.9 59 15 58 58 E 10 17 30.12 1020 10 16 N/A
8:53 pm 20:53 Clear 72 22.2 57 13.9 59 59 E 7 11 30.13 1020 10 16 N/A
9:53 pm 21:53 Clear 70 21.1 57 13.9 64 64 E 9 15 30.14 1021 10 16 N/A
10:53 pm 22:53 Clear 68 20 56 13.3 65 65 ESE 9 15 30.14 1021 10 16 N/A
11:53 pm 23:53 Clear 67 19.4 55 12.8 66 66 ESE 9 15 30.14 1021 10 16 N/A

Powered by AerisWeather